STARLINK-33699, 63328

Orbit data source: Space-Track

STARLINK-33699, 63328 is a payload satellite owned by SpaceX/Seattle (US) in LEO that was launched on Tue, 18 Mar 2025 UTC via an FALCON 9 launch vehicle from the Air Force Eastern Test Range (AFETR). Payload-class satellites include a variety of spacecraft equipped with specific instruments for various scientific and technological missions. These include communications satellites like Starlink; space stations such as the ISS; scientific satellites like the Hubble; Earth observation satellites from companies like Planet Labs, Umbra, and HawkEye 360; GPS; miniature CubeSats for education and research; and military/defense satellites.

Loading next visibility...
Identifier
63328, 2025-057X
Orbit
LEO
Last TLE update
11 hours ago
Origin
Manufacturer
SpaceX/Seattle
Mission
Operational Commercial Communications
Bus & Motor
STARLINK V2MO, Unknown motor
Mass
575 kg wet, ~530 kg dry
Launch date (UTC)
2025-03-18 (2 months ago)
Launch vehicle
FALCON 9
Launch site
Air Force Eastern Test Range (AFETR)
Object type
Payload
Rocket body
Debris
Shape & HBR
Box + 1 Pan, 29 m
Radar Cross Section
41.120 m², Large (>1 m²)

Expand to show TLE details & history

TLE from 11 hours ago
0 STARLINK-33699
1 63328U 25057X   25128.84203090  .00000630  00000-0  22348-4 0  9997
2 63328  43.0055 310.8528 0002381 282.4503  77.6088 15.40701800  8905
Epoch: 2025-05-08T20:12Z
Definitive object data (Epoch: 2025-05-08T20:12:31.469Z)
Latitude
0.00003°
Longitude
140.81498°
Altitude
443.463 km
Speed
7.648 km/s
True Right ascension
20h 43m 24s
True Declination
0° 00' 00"
Sunlit
Object was in daylight at TLE epoch
Visualization TLE readout
Latitude
-30.573°
Longitude
99.20804°
Altitude
450.819 km
Speed
7.643 km/s
Apparent Right ascension
21h 38m 16s
Apparent Declination
-61° 21' 28"
Sunlit
Object is in full shadow
Visualization observer readout
Local Sidereal Time
15:02:28
Azimuth
142.865° SSE
Elevation
-38.341°
Doppler factor
1
Orbital elements
Apogee altitude
447.617 km
Perigee altitude
444.367 km
Semi-major axis
6,824.129 km
Eccentricity
0.0002381
Inclination
43.0055°
RAAN
310.8528°
Arg. of periapsis
282.4503°
True anomaly
77.63545°
Mean anomaly
77.6088°
Eccentric anomaly
77.62213°
Mean motion
3.8501 °/min
BSTAR
0.000022348
Orbital period
93.5 mins
Loading maneuver chart data...
Loading SW <> Apogee altitude chart data...
Loading historical data...
Loading historical data...
Loading historical data...
Loading historical data...
Loading historical data...
Loading historical data...
Loading historical data...

STARLINK-33699 Visibility forecast

Observer location: undefined°, undefined°

Span
Click to sort rows by Start time (UTC) header in descending order
Start Az.
Max El. time (UTC)
Max El. Az.
Max El.
End time (UTC)
End Az.
5 mins2025-05-09 15:04:33.528Z205.318° SW2025-05-09 15:07:33.528Z137.281° SSE24.68°2025-05-09 15:09:33.528Z94.909° ESE
5 mins2025-05-09 16:43:33.528Z263.871° W2025-05-09 16:45:33.528Z44.834° NE41.464°2025-05-09 16:48:33.528Z70.719° E
5 mins2025-05-09 18:21:33.528Z296.653° NW2025-05-09 18:23:33.528Z13.452° NNE37.006°2025-05-09 18:26:33.528Z77.909° E
5 mins2025-05-09 19:59:33.528Z286.584° WNW2025-05-09 20:01:33.528Z231.431° WSW44.811°2025-05-09 20:04:33.528Z112.053° ESE
|